User: anonymous   Login
Location: Unspecified
(0.0000°N, 0.0000°E)
Time: 04:35:47
(UTC+00:00)
Language:

COSMOS 2497 - Orbit

View from above orbital plane
View from above orbital plane
View from above satellite
View from above satellite

Ground track
Ground track

The orbit data is extracted from the following two-line orbital elements,

1 39762U 14028B   24206.55728547  .00000019  00000-0  62468-4 0  9999
2 39762  82.4502 183.9744 0021023 139.1475 221.1185 12.42884468461473
Epoch (UTC): 24 July 2024 13:22:29
Eccentricity: 0.0021023
inclination: 82.4502°
perigee height: 1478 km
apogee height: 1511 km
right ascension of ascending node: 183.9744°
argument of perigee: 139.1475°
revolutions per day: 12.42884468
mean anomaly at epoch: 221.1185°
orbit number at epoch: 46147

The dashed part of the orbit path shows where the satellite is in the earth's shadow,  

DLR